Reflectivity
-20 1 16 -20 -20 -20 -20 -20 -20 -20 -20 -20 -20 -20 4 -9 7 -15 -20 -20 -20 -12 -17 -20 -20 -20 -20 -20 -20 -20 -20 -20 -20 -20 -20 -20 -20 -20 -20 -20 -20 -20 -20 -20 -13 -20 -12
-20 -20 -11 13 -16 -20 -20 -20 -20 -20 -20 -20 -20 -20 -20 -20 6 2 -5 -20 9 -20 -20 -20 -20 -20 -20 -20 -20 -20 -20 -20 -20 -20 -20 -20 -20 -20 -20 -20 -10 -20 -20 -18 -20 -20 -18
-20 -20 -12 3 -11 -20 -20 -20 -20 -20 -20 -20 -20 -20 -5 -20 10 7 2 -7 -7 -20 -20 -20 -20 -20 -20 -20 -20 -20 -20 -20 -17 -20 -20 -20 -20 -20 -20 -20 -20 -20 -16 -11 -4 -20 -20
-20 -20 -20 2 14 -3 -20 -20 -20 -20 -20 -20 -20 -20 -20 -12 -1 -3 -14 -12 -9 -20 -20 -20 -20 -20 -20 -20 -20 -20 -20 -20 -20 -20 -20 -20 -20 -20 -20 -20 -20 -20 -20 -4 -17 -20 -20
-20 -20 -20 -20 8 9 -20 -20 -20 -20 -20 -20 -20 -20 -20 -20 -16 -19 -11 -20 -20 -20 -20 -20 -20 -20 -20 -20 -20 -20 -20 -20 -20 -20 -20 -20 -20 -20 -20 -20 -20 -20 1 2 -20 -20 -20
-6 -20 -20 -20 -19 5 9 -20 -20 -20 -20 -20 -20 -20 -20 -20 -16 -15 -11 -20 -20 -20 -20 -20 -20 -20 -20 -17 -9 -20 -20 -20 -20 -20 -20 -17 -10 -20 -20 -20 -1 -11 -0 -7 -20 -20 -20
-20 -20 -20 -3 -20 -19 -7 -20 -20 -20 -20 -20 -20 -20 -20 -20 2 -1 -20 -20 -20 -20 -20 -20 -20 -20 -20 -20 -20 -20 -20 -20 -20 -20 5 -9 -20 -19 6 10 10 5 -12 -18 -20 -20 -20
-20 -20 -20 -20 10 -1 -11 -20 -20 -20 -20 -20 -20 -20 -20 -20 8 -1 -20 -20 -20 -20 -20 -20 -20 -20 -20 -20 -20 -20 -20 -20 -19 -16 -1 -13 15 -6 7 -12 -20 -20 -9 -13 -20 -20 -20
4 -20 -20 -20 -20 -20 3 5 -20 -20 -20 -20 -20 -20 -20 -19 1 -13 -20 -20 -20 -20 -20 -20 -20 -20 -20 -20 -20 -20 -20 -15 6 8 15 22 4 -17 -20 -20 -20 -20 -19 6 -7 -20 -19
13 2 -2 -15 -20 -20 -20 3 3 -20 -20 -20 -20 -20 -10 -20 -20 -20 -20 -20 -20 -20 -20 -20 -20 -20 -20 -20 -20 -20 -20 -20 -20 11 -10 6 2 -9 -20 -10 -9 -5 -18 9 -20 -20 -20
-20 9 -5 -20 -20 -20 -20 9 12 -20 -20 -20 -20 -20 -20 -20 -20 -20 -20 -20 -20 -20 -20 -20 -20 -20 -20 -20 -20 -20 -20 -20 -4 -19 -19 19 -20 -20 0 24 -20 6 6 -20 -20 -20 28
-20 11 10 -19 -20 -13 -20 -19 11 -14 -20 -20 -20 -20 -20 -12 -20 -20 -20 -20 -20 -15 -15 -20 -20 -20 -20 -20 -20 -20 -20 -20 -2 -19 -20 22 -20 -20 6 -20 -20 -20 -20 -20 -20 -16 -20
13 11 12 6 -20 8 -20 -20 3 9 -20 -20 -20 -20 -12 -20 -20 -20 -20 -20 -16 -20 -20 -20 -20 -20 -20 -20 -20 -20 -20 -20 -20 -20 -20 -16 -20 -20 -20 -20 -20 -20 -20 -6 -8 -10 -20
19 16 -20 12 -20 -19 -20 -20 10 21 -20 -20 -20 -20 -12 -20 -20 -20 -7 -20 -20 -20 -20 -20 -20 -20 -20 -20 -20 -20 -20 -20 -20 7 16 -20 -20 -20 -20 -20 -20 -20 -20 -18 9 -19 -15
10 22 18 -12 12 -20 -20 -20 11 26 -20 -20 -20 -4 -4 -19 -20 -20 -20 -20 -20 -20 -20 -20 -20 -20 -20 -20 -20 -20 -20 -20 -20 -20 21 -3 24 -14 -20 -20 -20 -20 -20 -20 -20 -20 -20
-19 16 16 15 -1 -20 -20 -7 4 29 -19 -20 -20 -8 -20 -20 -20 -20 -20 -20 -20 -20 -20 -20 -20 -20 -20 -20 -20 -20 -20 -4 -20 -20 -20 -20 -20 -20 -20 -20 -20 -20 -20 -20 -20 -20 -20
15 3 18 15 4 -20 -20 -20 -13 29 -13 -20 -20 -20 -20 -20 -20 -20 -20 -20 -20 -20 -20 -20 -20 -20 -20 -20 -20 -20 -20 -20 -20 -20 -20 -20 -20 -20 -20 -20 -20 -20 -20 -20 -20 -20 -20
19 -20 5 -10 13 21 -20 -19 23 29 -15 -20 -2 -20 -20 -20 -13 -20 -20 -20 -20 -20 -20 -20 -20 -20 -20 -20 -20 -20 -20 -20 -20 -20 -20 -20 -20 -20 -20 -20 -20 -20 -20 -20 -20 -20 -20
4 -14 22 17 -9 -15 14 3 28 29 -20 -20 7 -2 4 -20 16 14 -20 -20 -20 -20 -20 -20 -20 -20 -20 -20 -20 -20 -20 -20 -20 -20 -20 -20 -20 -20 -20 -20 -20 -20 -20 -20 -20 -20 -20
-19 5 33 7 -2 21 3 16 31 30 -20 -20 -18 -3 12 -19 -20 -20 -20 -20 -20 -20 -20 -20 -20 -20 -20 -20 -20 -20 -20 -20 -20 -20 -20 -20 -20 -20 -20 -20 -20 -20 -20 -20 -20 -20 -20
19 38 14 15 2 19 13 18 34 31 -20 -20 -20 -15 -20 -18 2 -20 -20 -20 -20 -20 -20 -20 -20 -20 -20 -20 -20 -20 -20 -20 -20 -20 -20 -20 -20 -20 -20 -20 -20 -20 -20 -20 -20 -20 -20
25 19 -1 -20 -20 6 21 24 36 26 -20 0 -20 -20 -20 -20 -20 -20 -20 -20 -20 -20 -20 -20 -20 -20 -20 -20 -20 -20 -20 -20 -20 -20 -20 -20 -20 -20 -20 -20 -20 -20 -20 -20 -20 -20 -20
10 -11 -10 -17 -20 -5 13 32 35 2 -20 -18 -20 -20 -19 -19 -20 -20 -20 -20 -20 -20 -20 -20 -20 -20 -20 -20 -20 -20 -20 -20 -20 -20 -20 -20 -20 -20 -20 -20 -20 -20 -20 -20 -20 -20 -20
-20 -20 -15 -6 0 1 14 37 28 4 -20 -20 -20 21 -1 17 -20 -20 -20 -20 -20 -20 -20 -20 -20 -20 -20 -20 -20 -20 -20 -20 -20 -20 -20 -20 -20 -20 -20 -20 -12 -20 -20 -20 -20 -20 -20
-20 -20 -20 -1 -13 -16 36 31 26 -20 -20 -16 10 -2 24 16 -15 -20 -20 -20 -20 -20 -20 -20 -20 -20 -20 -20 -20 -20 -20 -20 -20 -20 -20 -20 -20 -20 -16 -20 -20 -20 -20 -20 -20 -20 -20
-20 -13 -20 -17 6 23 37 32 18 -20 -18 27 3 -17 1 -20 -20 -20 -20 -20 -20 -20 -20 -20 -20 -20 -20 -20 -20 -20 -20 -20 -20 -20 -20 -20 -20 -20 -20 -20 -20 -20 -20 -20 -20 -20 -20
-9 -2 -16 21 24 34 26 26 -12 -20 -7 20 4 6 -20 -20 -20 -20 -20 -20 -20 -20 -20 -20 -20 -20 -20 -9 8 -20 -20 -20 -20 -20 -20 -20 -20 -7 -20 -9 -20 -20 -20 -20 -20 -20 -20
-20 6 15 24 31 17 10 -8 -14 -20 7 25 -20 -20 -20 -20 -20 -20 -20 -20 -20 -20 -20 -20 -20 -20 -20 -20 -11 -20 -6 -20 -20 -20 -20 -20 -20 -20 -20 -9 -20 -20 -20 -20 -20 -20 -20
32 15 32 28 20 16 11 3 -16 -20 -2 26 26 -20 -20 -20 -20 -20 -20 -20 -20 -20 -20 -20 -20 -20 -20 -19 -16 -20 8 7 -20 -20 -20 -20 -20 -20 -20 -20 -20 -20 -20 -20 -20 -20 -20
Wind_Speed
15 13 17 16 15 15 13 12 12 11 8 8 9 9 10 12 13 11 10 9 8 9 7 7 9 10 10 8 13 11 13 14 15 12 12 12 12 13 11 12 13 10 7 2 2 5 9
17 15 13 17 16 16 15 13 13 11 9 8 9 8 10 10 11 10 9 9 8 7 5 5 7 10 8 11 5 8 12 16 16 16 14 12 7 8 8 11 13 9 6 5 7 6 4
18 17 14 16 17 16 15 13 13 12 10 9 9 9 9 8 9 8 9 8 7 4 2 4 5 9 9 15 3 7 10 11 9 14 12 11 7 8 4 7 4 5 9 11 10 12 8
18 18 16 14 18 17 15 14 14 12 10 10 9 8 8 7 8 8 7 6 4 2 0 2 5 8 10 5 7 7 10 7 13 12 11 6 6 11 9 3 7 11 11 13 13 11 5
18 18 19 17 16 17 16 15 14 12 11 10 9 8 7 7 6 8 6 2 2 1 1 4 6 6 7 4 9 5 11 6 9 10 5 5 6 10 8 12 9 9 7 9 10 12 11
21 19 19 20 17 19 17 16 14 13 12 11 9 8 6 7 6 7 3 2 5 7 8 7 7 7 10 7 2 3 7 9 10 10 9 6 9 9 10 11 8 7 12 14 13 11 12
23 23 20 20 18 18 19 17 15 14 13 11 9 8 5 7 7 6 8 6 7 8 8 12 1 9 2 6 5 9 10 10 8 14 7 8 7 8 6 9 9 13 9 12 15 6 10
24 23 22 21 19 18 21 18 15 14 13 11 10 7 6 6 6 10 10 8 8 8 8 19 17 12 12 3 5 7 7 8 6 10 11 9 16 10 6 5 5 5 6 12 8 9 9
24 23 22 21 21 18 20 19 16 15 13 12 10 9 7 5 10 5 13 14 5 12 8 11 13 11 7 9 10 11 10 12 8 14 12 10 4 5 6 8 9 5 9 11 12 12 14
25 24 23 23 21 20 18 20 17 16 14 12 11 9 8 14 5 10 9 13 15 4 7 12 10 9 8 8 9 1 5 3 4 5 5 3 8 5 3 5 3 10 3 10 3 9 14
26 26 24 22 23 20 16 19 18 17 15 14 12 11 16 22 7 8 7 0 4 6 6 17 14 6 6 11 6 10 3 5 12 6 7 11 10 12 11 4 5 13 7 6 7 13 5
26 27 25 23 22 20 17 17 18 17 16 15 14 13 16 7 7 12 4 5 5 6 7 8 10 11 11 12 7 11 10 6 2 6 11 13 2 3 6 2 3 4 5 6 7 10 7
23 27 26 25 23 21 19 18 19 19 16 16 15 16 17 10 4 3 5 6 7 10 7 12 16 14 15 11 10 11 16 14 11 11 12 10 8 5 5 6 5 9 9 9 9 9 10
23 25 26 26 24 22 20 19 20 19 16 16 14 14 11 11 9 5 6 9 13 14 14 4 15 14 13 10 11 11 16 18 17 14 10 12 10 13 9 10 4 10 13 9 6 6 10
28 27 26 27 25 23 20 19 20 20 18 16 15 7 6 10 14 6 9 11 14 9 11 10 12 13 14 10 6 12 14 16 15 13 13 8 7 6 2 2 7 7 8 7 6 2 8
28 26 26 27 27 24 21 20 21 22 22 23 10 6 12 11 16 8 9 15 20 3 6 12 16 16 15 15 11 14 12 5 6 5 5 1 3 3 6 5 5 8 3 5 6 5 9
26 23 25 27 27 24 22 20 23 24 27 26 10 7 9 17 14 8 12 16 17 8 8 12 17 13 14 13 14 15 9 8 6 8 6 6 8 7 4 11 11 8 10 7 5 3 5
27 25 24 27 23 23 22 21 24 28 29 19 13 12 12 15 12 12 15 22 8 10 9 9 8 9 12 12 13 11 13 5 6 6 10 6 5 6 13 6 6 11 8 10 6 6 2
23 24 27 27 20 15 22 20 25 30 31 14 13 9 8 12 14 13 19 22 13 11 12 12 11 9 8 10 10 12 10 6 5 8 5 7 7 8 7 7 7 9 10 8 4 1 7
21 24 30 27 26 20 22 20 25 32 31 14 13 12 8 9 16 18 24 19 17 7 8 11 11 10 11 7 5 8 8 4 4 4 3 1 12 10 10 6 2 12 13 12 12 7 9
20 21 25 23 24 26 21 20 26 33 33 12 14 12 14 17 20 20 21 19 22 12 10 12 11 16 12 8 9 8 9 6 6 5 6 5 8 13 14 6 6 8 10 13 17 16 14
24 20 19 21 21 23 21 12 29 34 30 10 11 13 15 19 23 20 20 22 23 18 15 14 10 15 12 9 11 10 11 10 8 10 8 6 4 2 5 8 8 11 12 14 14 17 17
21 20 19 22 20 24 19 15 30 34 25 11 9 3 13 16 23 18 17 20 22 15 2 4 11 9 10 7 8 11 9 4 3 7 10 5 4 4 4 4 5 7 16 17 16 16 14
21 20 21 21 23 18 24 16 31 31 29 11 6 6 8 13 17 18 20 18 18 16 11 5 6 8 7 13 12 12 11 8 6 5 4 6 4 2 0 2 1 4 0 5 10 15 17
21 21 21 23 23 19 19 22 30 29 34 10 3 6 6 4 12 24 20 19 17 10 9 11 6 5 16 7 4 5 3 3 2 3 4 3 4 3 3 7 9 10 7 2 4 7 6
20 20 23 24 25 21 21 27 29 30 40 8 9 5 8 9 12 21 18 19 11 12 7 5 7 8 3 2 2 5 5 5 5 7 3 5 1 4 3 3 4 4 4 1 2 7 8
19 22 22 21 24 23 26 25 27 29 29 10 1 6 6 8 12 13 15 14 13 11 7 7 8 5 3 3 2 3 4 3 5 5 4 3 2 6 6 4 6 3 2 2 5 4 6
13 19 20 14 20 26 28 26 28 28 24 12 1 3 4 6 6 1 5 11 14 11 8 10 7 2 3 3 4 3 1 4 2 1 5 6 7 4 3 3 6 5 6 2 5 4 4
20 21 22 22 23 24 24 27 26 23 23 20 3 2 5 4 7 4 7 7 5 5 8 13 5 11 7 5 2 2 2 2 1 3 3 4 4 1 6 2 5 5 4 2 4 7 8
Wind_Direction
295 309 240 227 231 233 236 234 230 230 234 259 269 286 296 303 304 306 304 310 303 300 309 320 322 328 294 237 254 79 113 139 174 212 220 202 206 220 224 210 204 232 155 278 289 130 140
284 287 295 227 225 231 234 233 230 227 229 244 261 277 290 293 300 302 304 302 294 299 297 323 329 312 254 263 52 120 131 158 174 195 208 219 236 248 255 209 204 186 260 171 175 170 168
278 280 276 262 221 226 231 229 230 224 222 235 252 274 283 293 298 297 302 297 290 288 301 320 318 281 261 250 23 133 160 191 201 211 206 225 248 255 323 224 259 222 202 170 175 175 197
268 274 276 277 236 220 225 228 227 222 219 231 243 266 280 294 292 290 291 286 261 242 283 306 301 275 267 185 275 215 205 218 216 225 261 335 273 280 276 4 206 216 208 182 165 182 178
266 269 269 274 258 222 221 223 225 216 214 228 234 248 268 278 277 278 274 219 233 208 251 243 230 243 263 105 229 214 216 217 180 201 217 286 222 231 217 241 190 212 192 163 171 208 166
265 261 267 262 264 235 222 223 218 208 208 225 228 241 249 267 258 259 193 253 160 215 206 214 259 262 240 216 93 156 195 141 159 163 183 207 209 225 222 216 196 162 237 166 160 169 189
257 261 259 267 254 239 224 223 212 204 208 216 218 234 235 249 248 191 164 198 210 191 214 237 182 259 93 345 195 208 156 195 142 185 182 209 234 238 183 216 270 198 185 185 123 142 227
250 249 252 257 259 246 230 218 210 201 206 210 209 211 225 238 218 181 255 247 336 355 277 218 250 266 273 281 245 219 168 240 184 235 141 196 210 237 205 185 252 252 238 113 120 172 255
246 245 245 249 256 256 234 221 205 196 202 202 200 199 209 189 137 179 236 234 353 357 252 177 224 247 238 191 225 196 198 223 214 185 207 313 87 155 193 193 230 237 218 157 176 181 232
255 242 240 246 246 248 244 217 207 193 194 194 194 191 177 132 178 220 223 236 248 280 260 162 203 211 192 228 222 74 271 258 215 177 103 296 195 202 220 216 261 266 95 221 192 198 215
251 243 234 237 244 239 239 222 203 194 189 186 186 185 164 196 343 208 53 203 145 197 239 157 164 96 158 214 222 169 185 171 246 233 221 191 176 201 210 66 295 107 238 209 209 240 242
243 244 233 229 237 234 230 214 195 192 187 179 179 181 168 219 262 271 6 318 195 233 221 165 163 185 187 211 217 163 177 238 227 247 234 256 25 307 50 99 269 128 169 213 240 254 252
244 239 234 226 228 231 232 212 202 187 183 173 175 175 178 174 220 186 233 194 210 219 154 167 189 186 204 179 186 204 190 195 215 209 218 177 170 117 185 145 159 205 219 223 225 215 236
252 249 233 228 221 224 225 216 201 182 177 167 169 170 213 232 243 310 211 208 228 208 204 158 180 188 210 167 195 208 195 210 215 248 252 193 180 177 176 260 235 219 251 251 276 276 272
243 249 241 226 223 218 219 208 199 179 163 150 141 196 224 221 244 268 225 205 218 213 189 182 186 191 200 175 228 204 213 215 201 221 259 238 138 130 253 229 267 179 245 329 311 291 283
229 243 241 225 219 213 212 204 193 176 152 150 181 190 220 195 183 220 226 219 227 263 217 192 188 199 191 194 205 201 194 199 162 242 284 343 267 173 126 216 211 276 23 214 224 257 255
226 236 238 223 218 209 207 201 189 174 155 175 188 204 173 165 166 211 215 202 230 189 203 206 203 193 220 186 203 196 203 140 199 182 241 267 250 145 169 211 229 178 231 234 304 305 289
222 222 244 220 214 213 203 199 187 170 164 172 198 210 147 149 190 201 214 209 214 185 199 214 276 191 224 194 206 218 226 223 162 192 208 210 248 204 229 82 310 300 270 205 230 208 230
222 221 239 209 197 214 206 197 187 173 166 172 199 166 164 194 198 198 209 213 189 205 199 198 203 213 211 208 208 223 217 75 177 212 223 181 228 224 227 201 215 240 230 239 221 335 236
228 244 220 200 195 209 212 195 193 173 179 204 193 167 151 199 222 195 204 197 201 219 204 197 201 174 188 197 211 193 190 151 191 209 356 358 244 229 246 279 306 206 241 217 215 222 245
235 213 190 195 197 191 202 195 191 171 184 215 214 194 175 179 201 196 202 200 197 178 229 197 190 205 197 207 188 205 183 157 183 154 196 242 238 238 263 294 292 284 260 222 234 237 253
215 205 197 198 199 189 182 198 191 177 181 217 218 193 173 166 197 208 193 216 194 193 182 196 217 203 206 193 208 210 195 191 184 178 197 196 225 285 254 243 265 265 255 254 242 249 254
208 207 202 199 194 193 181 206 198 181 177 203 241 80 177 162 189 202 193 213 193 179 208 267 215 165 195 79 57 42 61 52 107 177 196 183 167 182 246 2 301 287 238 248 247 248 251
201 205 204 199 187 183 187 225 199 179 194 211 218 193 158 173 186 195 189 213 194 177 170 151 188 180 99 126 100 78 80 83 95 67 148 165 179 170 219 230 296 263 326 295 271 265 255
201 206 203 193 185 177 181 230 182 180 203 229 221 221 168 130 188 196 189 208 192 138 131 129 54 66 154 152 128 129 113 93 125 82 127 233 164 144 184 222 291 285 186 245 239 289 331
204 204 194 188 185 178 197 194 174 186 209 210 261 281 148 149 196 191 184 204 156 144 141 96 132 100 139 118 140 191 192 219 158 149 130 95 106 231 167 221 235 73 73 64 218 256 48
203 195 189 184 191 184 188 185 182 192 203 208 239 250 172 159 176 179 197 203 188 172 135 133 161 160 269 106 122 189 199 332 185 192 185 136 225 214 203 254 285 50 153 217 237 43 19
185 182 175 178 177 180 178 182 187 197 196 191 219 269 212 137 107 163 221 184 207 199 157 132 145 150 162 164 180 172 148 196 223 199 179 184 174 188 179 210 261 137 141 232 36 316 350
200 179 177 171 173 174 178 182 187 189 195 193 221 68 43 82 77 41 41 11 331 259 201 176 215 151 172 171 70 100 122 38 30 227 186 219 232 270 215 227 105 192 319 346 317 308 313